TimeMST,TemperatureF,Dew PointF,Humidity,Sea Level PressureIn,VisibilityMPH,Wind Direction,Wind SpeedMPH,Gust SpeedMPH,PrecipitationIn,Events,Conditions,WindDirDegrees,DateUTC
12:15 AM,40.5,31.3,70,29.62,10.0,West,6.9,-,N/A,,Clear,260,2013-03-04 07:15:00
12:55 AM,43.2,31.8,64,29.65,10.0,WNW,13.8,18.4,N/A,,Clear,300,2013-03-04 07:55:00
1:15 AM,44.2,32.0,62,29.67,10.0,NW,10.4,20.7,N/A,,Clear,310,2013-03-04 08:15:00
1:35 AM,41.5,32.0,69,29.67,10.0,NW,9.2,-,N/A,,Clear,310,2013-03-04 08:35:00
1:55 AM,41.2,31.3,68,29.69,10.0,NW,12.7,23.0,N/A,,Clear,320,2013-03-04 08:55:00
2:15 AM,38.7,29.1,69,29.70,10.0,NNW,19.6,26.5,N/A,,Clear,330,2013-03-04 09:15:00
2:35 AM,36.7,28.4,72,29.72,10.0,NW,10.4,25.3,N/A,,Clear,320,2013-03-04 09:35:00
2:55 AM,35.6,28.2,75,29.73,10.0,WNW,9.2,-,N/A,,Clear,300,2013-03-04 09:55:00
3:15 AM,35.1,28.0,76,29.74,10.0,WNW,6.9,-,N/A,,Clear,300,2013-03-04 10:15:00
3:35 AM,34.2,27.3,76,29.74,10.0,NW,5.8,-,N/A,,Clear,320,2013-03-04 10:35:00
3:55 AM,34.3,26.2,72,29.75,10.0,NNW,9.2,-,N/A,,Clear,330,2013-03-04 10:55:00
4:15 AM,34.2,26.1,72,29.77,10.0,WNW,9.2,-,N/A,,Clear,300,2013-03-04 11:15:00
4:55 AM,32.9,25.7,75,29.79,10.0,NW,9.2,-,N/A,,Clear,310,2013-03-04 11:55:00
5:15 AM,32.0,25.3,76,29.77,10.0,NNW,13.8,-,N/A,,Clear,340,2013-03-04 12:15:00
5:35 AM,33.4,24.8,71,29.78,10.0,NNW,10.4,-,N/A,,Clear,330,2013-03-04 12:35:00
5:55 AM,33.3,25.0,72,29.78,10.0,NNW,12.7,16.1,N/A,,Clear,340,2013-03-04 12:55:00
6:15 AM,32.5,26.1,77,29.79,10.0,NNW,13.8,-,N/A,,Clear,330,2013-03-04 13:15:00
6:35 AM,32.9,26.6,78,29.79,10.0,NNW,18.4,-,N/A,,Clear,340,2013-03-04 13:35:00
6:55 AM,34.2,26.4,73,29.80,10.0,NNW,13.8,19.6,N/A,,Clear,340,2013-03-04 13:55:00
7:15 AM,34.2,26.2,73,29.82,10.0,NNW,15.0,19.6,N/A,,Clear,330,2013-03-04 14:15:00
7:35 AM,33.4,26.1,74,29.81,10.0,NNW,13.8,-,N/A,,Clear,330,2013-03-04 14:35:00
7:55 AM,35.1,27.0,72,29.81,10.0,NNW,15.0,-,N/A,,Clear,340,2013-03-04 14:55:00
8:15 AM,36.7,26.6,67,29.81,10.0,NNW,15.0,-,N/A,,Clear,340,2013-03-04 15:15:00
8:35 AM,37.8,26.4,64,29.80,10.0,North,17.3,24.2,N/A,,Clear,350,2013-03-04 15:35:00
8:55 AM,39.2,25.9,59,29.81,10.0,NNW,17.3,25.3,N/A,,Clear,340,2013-03-04 15:55:00
9:15 AM,40.8,25.7,55,29.81,10.0,NNW,17.3,21.9,N/A,,Scattered Clouds,330,2013-03-04 16:15:00
9:35 AM,42.3,23.5,48,29.81,10.0,NNW,19.6,25.3,N/A,,Mostly Cloudy,340,2013-03-04 16:35:00
9:55 AM,43.5,18.5,37,29.81,10.0,North,21.9,27.6,N/A,,Mostly Cloudy,360,2013-03-04 16:55:00
10:15 AM,42.4,15.6,34,29.82,10.0,NNW,24.2,29.9,N/A,,Overcast,340,2013-03-04 17:15:00
10:35 AM,42.8,15.1,33,29.82,10.0,NNW,23.0,29.9,N/A,,Overcast,340,2013-03-04 17:35:00
10:55 AM,43.7,15.1,32,29.83,10.0,NNW,25.3,32.2,N/A,,Overcast,340,2013-03-04 17:55:00
11:15 AM,42.8,16.5,35,29.84,10.0,NNW,23.0,29.9,N/A,,Overcast,340,2013-03-04 18:15:00
11:55 AM,42.8,16.0,34,29.84,10.0,NNW,27.6,32.2,N/A,,Overcast,330,2013-03-04 18:55:00
12:15 PM,42.4,15.4,34,29.84,10.0,NNW,28.8,35.7,N/A,,Overcast,330,2013-03-04 19:15:00
12:35 PM,41.5,13.8,32,29.85,10.0,NNW,26.5,31.1,N/A,,Overcast,330,2013-03-04 19:35:00
12:55 PM,42.8,13.5,30,29.85,10.0,NNW,31.1,35.7,N/A,,Overcast,340,2013-03-04 19:55:00
1:15 PM,42.6,13.5,31,29.86,10.0,NNW,29.9,36.8,N/A,,Overcast,340,2013-03-04 20:15:00
1:35 PM,42.1,13.5,31,29.86,10.0,NNW,28.8,33.4,N/A,,Overcast,330,2013-03-04 20:35:00
1:55 PM,42.8,14.5,32,29.87,10.0,North,24.2,29.9,N/A,,Mostly Cloudy,360,2013-03-04 20:55:00
2:15 PM,43.3,10.9,27,29.88,10.0,NW,29.9,36.8,N/A,,Scattered Clouds,320,2013-03-04 21:15:00
2:35 PM,42.3,11.1,28,29.89,10.0,NNW,31.1,36.8,N/A,,Scattered Clouds,330,2013-03-04 21:35:00
2:55 PM,39.6,10.4,30,29.93,10.0,NW,24.2,33.4,N/A,,Mostly Cloudy,310,2013-03-04 21:55:00
3:15 PM,39.0,8.1,28,29.96,10.0,NW,27.6,33.4,0.01,,Mostly Cloudy,320,2013-03-04 22:15:00
3:35 PM,37.6,8.4,30,29.98,3.0,NNW,23.0,32.2,0.01,,Haze,330,2013-03-04 22:35:00
3:55 PM,36.5,11.5,36,29.99,10.0,North,24.2,27.6,0.01,,Overcast,350,2013-03-04 22:55:00
4:15 PM,36.7,11.8,36,30.00,10.0,North,21.9,28.8,N/A,,Overcast,350,2013-03-04 23:15:00
4:35 PM,35.8,11.1,36,30.01,10.0,NNW,25.3,36.8,N/A,,Mostly Cloudy,340,2013-03-04 23:35:00
4:55 PM,35.6,9.7,34,30.02,10.0,NNW,23.0,35.7,N/A,,Scattered Clouds,340,2013-03-04 23:55:00
5:15 PM,33.8,8.8,35,30.05,10.0,NW,26.5,34.5,N/A,,Clear,320,2013-03-05 00:15:00
5:35 PM,32.4,7.9,36,30.06,10.0,NNW,26.5,35.7,N/A,,Clear,330,2013-03-05 00:35:00
5:55 PM,31.6,8.2,38,30.08,10.0,NNW,20.7,35.7,N/A,,Clear,330,2013-03-05 00:55:00
6:15 PM,30.7,7.3,37,30.09,10.0,NNW,20.7,33.4,N/A,,Clear,330,2013-03-05 01:15:00
6:35 PM,30.0,7.7,39,30.10,10.0,NNW,24.2,31.1,N/A,,Clear,330,2013-03-05 01:35:00
6:55 PM,29.3,8.2,41,30.11,10.0,NNW,23.0,28.8,N/A,,Clear,330,2013-03-05 01:55:00
7:35 PM,28.8,8.4,42,30.12,10.0,NNW,28.8,36.8,N/A,,Clear,330,2013-03-05 02:35:00
7:55 PM,28.4,8.8,44,30.14,10.0,NNW,20.7,33.4,N/A,,Clear,330,2013-03-05 02:55:00
8:15 PM,27.9,9.5,46,30.14,10.0,NNW,32.2,39.1,N/A,,Clear,340,2013-03-05 03:15:00
8:35 PM,27.5,10.2,48,30.15,10.0,NNW,25.3,35.7,N/A,,Clear,330,2013-03-05 03:35:00
8:55 PM,26.8,10.9,51,30.16,10.0,NNW,19.6,29.9,N/A,,Clear,330,2013-03-05 03:55:00
9:15 PM,26.4,10.9,52,30.16,10.0,NNW,24.2,31.1,N/A,,Clear,330,2013-03-05 04:15:00
9:35 PM,26.2,10.4,51,30.16,10.0,NW,18.4,26.5,N/A,,Clear,320,2013-03-05 04:35:00
9:55 PM,25.7,10.6,53,30.17,10.0,NNW,16.1,25.3,N/A,,Clear,330,2013-03-05 04:55:00
10:15 PM,25.5,11.1,54,30.18,10.0,NW,12.7,-,N/A,,Clear,310,2013-03-05 05:15:00
10:35 PM,25.7,10.9,54,30.18,10.0,NW,24.2,32.2,N/A,,Clear,310,2013-03-05 05:35:00
10:55 PM,25.2,10.8,54,30.18,10.0,NW,17.3,24.2,N/A,,Clear,310,2013-03-05 05:55:00
11:15 PM,24.8,11.7,57,30.18,10.0,NW,18.4,26.5,N/A,,Clear,310,2013-03-05 06:15:00
11:35 PM,24.4,11.3,57,30.18,10.0,NW,16.1,25.3,N/A,,Clear,310,2013-03-05 06:35:00
11:55 PM,23.9,11.1,58,30.19,10.0,WNW,18.4,-,N/A,,Clear,300,2013-03-05 06:55:00